[[{"header":{"parameterUnit":"m.s-1","parameterCategory":1,"la1":30.2992,"la2":30.254,"lo1":-89.0895,"lo2":-89.0443,"dy":0.0025,"dx":0.0025,"nx":19,"ny":19,"refTime":"2026-03-18T03:00:00:Z","depth":0,"parameterNumber":2,"parameterNumberName":"U-component_of_WINDS"},"data":[0,0,0,1.1078,1.108,1.117,1.117,1.1282,1.1283,0,0,0,0,0,0,0,0,0,0,0,1.1047,1.1047,1.1078,1.108,1.117,1.117,1.1282,1.1283,0,0,0,0,0,0,0,0,0,0,0,1.1047,1.1047,1.1048,1.108,1.117,1.117,1.1281,1.1215,0,0,0,0,0,0,0,0,0,0,1.1128,1.1095,1.1047,1.1048,1.1081,1.1169,1.117,1.1212,1.1219,1.1239,0,1.1253,0,1.127,1.129,1.129,0,0,0,1.1083,1.1089,1.1117,1.1048,1.1081,1.1169,1.113,1.1216,1.1224,1.1248,1.1255,1.1259,1.1271,1.129,1.1291,1.1389,1.1389,0,0,1.1078,1.1061,1.1111,1.1122,1.1106,1.1127,1.1133,1.1221,1.1228,1.1255,1.1262,1.1273,1.1291,1.1292,1.1389,1.1389,0,0,0,1.1062,1.1057,1.1083,1.1117,1.1134,1.113,1.1136,1.1224,1.1234,1.1263,1.1275,1.1292,1.1293,1.1388,1.1389,1.1387,0,0,0,1.1059,1.1048,1.1081,1.1071,1.1132,1.1179,1.1137,1.1228,1.1238,1.1274,1.1292,1.1294,1.1388,1.1389,1.1386,1.1389,0,0,0,1.1043,1.1046,1.1057,1.107,1.1108,1.1178,1.1194,1.123,1.1245,1.129,1.1294,1.1388,1.1389,1.1385,1.1388,1.1411,0,0,0,1.102,1.1054,1.1057,1.1099,1.1107,1.1176,1.1193,1.1245,1.1284,1.1292,1.1388,1.1389,1.1385,1.1387,1.141,1.1427,1.1432,0,0,1.1053,1.1057,1.1083,1.1089,1.1152,1.1163,1.1228,1.1279,1.13,1.1359,1.1361,1.1386,1.1388,1.141,1.1466,1.147,0,0,0,1.1088,1.1106,1.1127,1.1162,1.1202,1.1238,1.1282,1.1302,1.1352,1.1326,1.1401,1.1402,1.1416,1.1425,1.1429,1.1443,1.1392,1.1392,1.1392,1.1109,1.1133,1.1179,1.1215,1.1249,1.1295,1.1326,1.1361,1.1375,1.1393,1.1411,1.1441,1.1451,1.1454,1.1468,1.1421,1.1421,1.1421,1.1421,1.1159,1.119,1.121,1.1261,1.1288,1.1332,1.1379,1.1388,1.1435,1.1429,1.1443,1.1436,1.1457,1.1471,1.1421,1.1421,1.1421,1.1421,1.1421,1.1177,1.1196,1.1219,1.1274,1.1315,1.1351,1.1395,1.1418,1.144,1.1453,1.1476,1.1476,1.148,1.1462,1.1462,1.1462,1.1462,1.1463,1.1463,1.1186,1.1212,1.1245,1.1292,1.1319,1.1358,1.1406,1.1434,1.1471,1.1484,1.1485,1.1499,1.1454,1.1443,1.1464,1.1464,1.1464,1.1464,1.1464,1.1229,1.1223,1.1275,1.1302,1.136,1.14,1.1429,1.1485,1.1511,1.1533,1.1545,1.1507,1.1514,1.1511,1.1502,1.1538,1.1538,1.1538,1.1538,1.1244,1.125,1.1309,1.1351,1.1395,1.1427,1.1488,1.1527,1.1566,1.1585,1.1583,1.1573,1.157,1.1578,1.1574,1.1566,1.1618,1.1618,1.1618,1.1274,1.1285,1.133,1.1368,1.1416,1.1457,1.1516,1.1566,1.161,1.1622,1.1601,1.1598,1.1582,1.1575,1.1586,1.1579,1.1565,0,0]},{"header":{"parameterUnit":"m.s-1","parameterCategory":1,"la1":30.2992,"la2":30.254,"lo1":-89.0895,"lo2":-89.0443,"dy":0.0025,"dx":0.0025,"nx":19,"ny":19,"refTime":"2026-03-18T03:00:00:Z","depth":0,"parameterNumber":3,"parameterNumberName":"V-component_of_WINDS"},"data":[0,0,0,-4.3491,-4.3493,-4.3579,-4.358,-4.3678,-4.3679,0,0,0,0,0,0,0,0,0,0,0,-4.346,-4.3461,-4.3491,-4.3493,-4.3579,-4.358,-4.3678,-4.3679,0,0,0,0,0,0,0,0,0,0,0,-4.346,-4.3461,-4.3461,-4.3494,-4.3579,-4.358,-4.3678,-4.3617,0,0,0,0,0,0,0,0,0,0,-4.3535,-4.3501,-4.346,-4.3461,-4.3494,-4.3579,-4.358,-4.3614,-4.3621,-4.3635,0,-4.3648,0,-4.3665,-4.3685,-4.3685,0,0,0,-4.3497,-4.3495,-4.3524,-4.3461,-4.3495,-4.3579,-4.3541,-4.3618,-4.3625,-4.3644,-4.3649,-4.3653,-4.3667,-4.3686,-4.3686,-4.3762,-4.3763,0,0,-4.3492,-4.3472,-4.3519,-4.3529,-4.3516,-4.3539,-4.3544,-4.3622,-4.3626,-4.365,-4.3656,-4.3668,-4.3686,-4.3687,-4.3762,-4.3762,0,0,0,-4.3476,-4.3469,-4.3496,-4.3524,-4.3541,-4.3541,-4.3547,-4.3623,-4.3633,-4.3657,-4.367,-4.3687,-4.3688,-4.3762,-4.3762,-4.3753,0,0,0,-4.3473,-4.3459,-4.3493,-4.3482,-4.3539,-4.3583,-4.3546,-4.3628,-4.3637,-4.3669,-4.3687,-4.3689,-4.3762,-4.3762,-4.3753,-4.3752,0,0,0,-4.3456,-4.3457,-4.3468,-4.3481,-4.3517,-4.3582,-4.3598,-4.363,-4.3645,-4.3686,-4.3689,-4.3762,-4.3762,-4.3753,-4.3752,-4.3767,0,0,0,-4.3432,-4.3457,-4.3468,-4.3501,-4.3516,-4.3577,-4.3597,-4.3643,-4.3676,-4.3687,-4.3762,-4.3762,-4.3753,-4.3751,-4.3766,-4.3775,-4.3778,0,0,-4.3452,-4.3459,-4.348,-4.3492,-4.3546,-4.3565,-4.3618,-4.3666,-4.3687,-4.3736,-4.3738,-4.3753,-4.3752,-4.3767,-4.3797,-4.3799,0,0,0,-4.348,-4.3494,-4.3513,-4.3546,-4.3585,-4.3619,-4.3662,-4.368,-4.3723,-4.3708,-4.3764,-4.3763,-4.3773,-4.3778,-4.3779,-4.3789,-4.3764,-4.3764,-4.3764,-4.3478,-4.3506,-4.3543,-4.3582,-4.3613,-4.3659,-4.3687,-4.3719,-4.3736,-4.3749,-4.3763,-4.3779,-4.3784,-4.3785,-4.3795,-4.3771,-4.3771,-4.3771,-4.3771,-4.351,-4.3536,-4.3561,-4.3606,-4.3636,-4.3673,-4.3719,-4.373,-4.3769,-4.377,-4.378,-4.3777,-4.3786,-4.3796,-4.377,-4.377,-4.377,-4.3771,-4.3771,-4.3512,-4.3529,-4.3553,-4.3605,-4.3641,-4.3679,-4.3717,-4.3742,-4.3765,-4.3775,-4.3793,-4.3793,-4.3796,-4.3782,-4.3782,-4.3782,-4.3782,-4.3782,-4.3782,-4.3504,-4.3531,-4.356,-4.3607,-4.3632,-4.3668,-4.3717,-4.3742,-4.3776,-4.3791,-4.3791,-4.3807,-4.3783,-4.3776,-4.3783,-4.3783,-4.3783,-4.3783,-4.3783,-4.3524,-4.3525,-4.3569,-4.3595,-4.3653,-4.3688,-4.372,-4.377,-4.3794,-4.3812,-4.3827,-4.3805,-4.3812,-4.3812,-4.3806,-4.3821,-4.3821,-4.3821,-4.3821,-4.3525,-4.3533,-4.3586,-4.3626,-4.3667,-4.3702,-4.3752,-4.379,-4.3829,-4.3846,-4.3848,-4.3843,-4.3841,-4.3849,-4.3848,-4.3843,-4.3867,-4.3867,-4.3867,-4.354,-4.3553,-4.3591,-4.3632,-4.3679,-4.3719,-4.3767,-4.381,-4.3854,-4.3869,-4.386,-4.3858,-4.385,-4.3846,-4.3859,-4.3856,-4.3847,0,0]}]]